KINEIS-1B

Last updated on Mon Sep 07 2026 00:02:54 GMT+0000 (Coordinated Universal Time)

1 60079U 24114A 26249.61797920 .00000344 00000+0 51575-4 0 9995 2 60079 97.9815 273.4136 0002631 158.4163 201.7160 14.80735846119452
UTC large
Height (km)
Speed (km/s)
/
Latitude / Longitude
Inclination (degrees)
Orbital Period (minutes)
Azimuth
Elevation
Range (km)
Doppler Factor

Next 0 passes for location: London (51.5072 / 0.1276)

No passes found over London.
KINEIS-1B